Flag for Mexico Weather past 2 weeks in San Luis Potosi, San Luis Potosí, Mexico

Now
63 °F

Overcast.


Feels Like: 63 °F
Forecast: 61 / 79 °F
Wind: 5 mph from East

Location: San Luis Potosi - S. L. P.

Current Time: Sep 4, 2015 at 7:47:39 AM

Latest Report: Sep 4, 2015 at 4:47 AM


Visibility: 10 mi

Pressure: 30.19 "Hg (24.20 "Hg at 1876m altitude)

Humidity: 77%

Dew point: 55 °F

Location of San Luis PotosiLocation

Historic Weather in San Luis Potosi — Graph

°F

San Luis Potosi temperature yesterday

Maximum temperature yesterday: 77 °F (at 5:47 PM)
Minimum temperature yesterday: 55 °F (at 7:52 AM)
Average temperature yesterday: 67 °F

Past Weeks' High & Low Weather Summary

 TemperatureHumidityPressure
High82 °F (Aug 31, 4:45 PM)100% (Aug 22, 8:46 AM)30.39 "Hg (Aug 22, 8:46 AM)
Low52 °F (Aug 30, 7:45 AM)26% (Aug 28, 3:45 PM)29.72 "Hg (Sep 3, 3:46 PM)
Average67 °F66%30.14 "Hg
* Reported Aug 20 4:46 AM — Sep 4 4:47 AM, San Luis Potosi, Weather by CustomWeather, © 2015

Note: Actual official high and low records may vary slightly from our data, if they occured in-between our weather recording intervals... More about our weather records

Advertising

San Luis Potosi weather history for previous 24 hours

 ConditionsComfort  
Time TempWeatherWind HumidityBarometerVisibility
4:47 AM
Fri, Sep 4
63 °FOvercast.5 mph77%30.19 "Hg10 mi
12:50 AM63 °FPartly cloudy.9 mph73%29.74 "Hg10 mi
10:47 PM
Thu, Sep 3
64 °FOvercast.5 mph78%30.18 "Hg10 mi
9:49 PM64 °FOvercast.12 mph78%29.75 "Hg10 mi
8:49 PM63 °FLight rain. Mostly cloudy.12 mph83%30.14 "Hg8 mi
7:40 PM64 °FThunderstorms. Cloudy.7 mph78%30.12 "Hg10 mi
6:33 PM66 °FRain. Broken clouds.17 mph73%30.12 "Hg8 mi
5:47 PM77 °FPartly sunny.8 mph42%30.09 "Hg12 mi
3:46 PM75 °FBroken clouds.12 mph54%29.72 "Hg12 mi
2:43 PM73 °FPartly sunny.No wind50%30.18 "Hg8 mi
1:49 PM75 °FPartly sunny.8 mph47%30.19 "Hg15 mi
12:45 PM75 °FPartly sunny.No wind44%29.80 "Hg10 mi
11:47 AM75 °FScattered clouds.6 mph44%30.23 "Hg10 mi
9:45 AM66 °FSunny.No wind68%29.80 "Hg6 mi
8:49 AM61 °FFog.No wind83%30.24 "Hg3 mi
7:52 AM55 °FFog.No wind94%30.23 "Hg3 mi
Weather by CustomWeather, © 2015

See weather overviewHow to use our weather pages